• en France
  • Liste des pays
  • À 7 jours
  • Température de l'eau
  • Carte satellitaire
  • Carte météo
  • Widgets météo
  • user-avatar
    Se connecter

    Météo par heure à Luanda

    Ce jour, 24 Septembre, Lundi

    Heure Température Précipitation Vent Pression Humidité
    00:00 +25°C° 0 mm 3 m/s 754 mmHg 80%
    01:00 +25°C° 0 mm 3 m/s 754 mmHg 80%
    02:00 +25°C° 0.1 mm 2 m/s 754 mmHg 80%
    03:00 +25°C° 0.1 mm 2 m/s 754 mmHg 80%
    04:00 +25°C° 0.1 mm 2 m/s 754 mmHg 80%
    05:00 +25°C° 0 mm 1 m/s 754 mmHg 80%
    06:00 +25°C° 0 mm 1 m/s 754 mmHg 80%
    07:00 +25°C° 0 mm 1 m/s 755 mmHg 78%
    08:00 +26°C° 0 mm 1 m/s 755 mmHg 71%
    09:00 +28°C° 0 mm 1 m/s 755 mmHg 64%
    10:00 +29°C° 0 mm 2 m/s 755 mmHg 57%
    11:00 +30°C° 0 mm 2 m/s 754 mmHg 54%
    12:00 +33°C° 0 mm 3 m/s 754 mmHg 50%
    13:00 +34°C° 0 mm 4 m/s 753 mmHg 46%
    14:00 +33°C° 0 mm 4 m/s 752 mmHg 50%
    15:00 +32°C° 0 mm 5 m/s 752 mmHg 53%
    16:00 +30°C° 0 mm 5 m/s 751 mmHg 57%
    17:00 +28°C° 0 mm 5 m/s 752 mmHg 63%
    18:00 +27°C° 0 mm 4 m/s 752 mmHg 69%
    19:00 +26°C° 0 mm 4 m/s 753 mmHg 75%
    20:00 +26°C° 0 mm 4 m/s 753 mmHg 76%
    21:00 +25°C° 0 mm 3 m/s 754 mmHg 78%
    22:00 +25°C° 0 mm 3 m/s 755 mmHg 79%
    23:00 +25°C° 0 mm 3 m/s 755 mmHg 80%

    Demain, 25 Septembre, Mardi

    Heure Température Précipitation Vent Pression Humidité
    00:00 +25°C° 0 mm 3 m/s 755 mmHg 81%
    01:00 +25°C° 0 mm 3 m/s 755 mmHg 81%
    02:00 +25°C° 0.1 mm 2 m/s 754 mmHg 81%
    03:00 +25°C° 0.1 mm 2 m/s 754 mmHg 81%
    04:00 +25°C° 0.1 mm 2 m/s 754 mmHg 81%
    05:00 +25°C° 0 mm 2 m/s 754 mmHg 80%
    06:00 +25°C° 0 mm 2 m/s 755 mmHg 80%
    07:00 +25°C° 0 mm 2 m/s 755 mmHg 79%
    08:00 +26°C° 0 mm 2 m/s 755 mmHg 75%
    09:00 +27°C° 0 mm 2 m/s 755 mmHg 71%
    10:00 +27°C° 0 mm 1 m/s 756 mmHg 66%
    11:00 +29°C° 0 mm 2 m/s 755 mmHg 60%
    12:00 +31°C° 0 mm 3 m/s 754 mmHg 54%
    13:00 +33°C° 0 mm 4 m/s 753 mmHg 48%
    14:00 +33°C° 0 mm 4 m/s 753 mmHg 50%
    15:00 +32°C° 0 mm 4 m/s 752 mmHg 52%
    16:00 +30°C° 0 mm 5 m/s 751 mmHg 54%
    17:00 +29°C° 0 mm 4 m/s 752 mmHg 61%
    18:00 +27°C° 0 mm 4 m/s 753 mmHg 67%
    19:00 +26°C° 0 mm 3 m/s 753 mmHg 73%
    20:00 +26°C° 0 mm 3 m/s 754 mmHg 75%
    21:00 +25°C° 0 mm 3 m/s 754 mmHg 76%
    22:00 +25°C° 0 mm 3 m/s 755 mmHg 78%
    23:00 +25°C° 0 mm 3 m/s 755 mmHg 79%

    Après-demain, 26 Septembre, Mercredi

    Heure Température Précipitation Vent Pression Humidité
    00:00 +25°C° 0 mm 3 m/s 754 mmHg 80%
    01:00 +24°C° 0 mm 3 m/s 754 mmHg 82%
    02:00 +24°C° 0 mm 2 m/s 754 mmHg 82%
    03:00 +24°C° 0 mm 2 m/s 754 mmHg 83%
    04:00 +24°C° 0 mm 2 m/s 754 mmHg 84%
    05:00 +24°C° 0 mm 2 m/s 754 mmHg 83%
    06:00 +24°C° 0 mm 2 m/s 755 mmHg 81%
    07:00 +25°C° 0 mm 1 m/s 755 mmHg 80%
    08:00 +26°C° 0 mm 1 m/s 755 mmHg 73%
    09:00 +27°C° 0 mm 1 m/s 756 mmHg 67%
    10:00 +27°C° 0 mm 0 m/s 756 mmHg 60%
    11:00 +30°C° 0 mm 1 m/s 755 mmHg 55%
    12:00 +31°C° 0 mm 2 m/s 754 mmHg 50%
    13:00 +34°C° 0 mm 3 m/s 753 mmHg 46%
    14:00 +33°C° 0 mm 4 m/s 752 mmHg 49%
    15:00 +32°C° 0 mm 5 m/s 752 mmHg 52%
    16:00 +30°C° 0 mm 5 m/s 751 mmHg 55%
    17:00 +29°C° 0 mm 5 m/s 752 mmHg 62%
    18:00 +27°C° 0 mm 4 m/s 752 mmHg 69%
    19:00 +26°C° 0 mm 4 m/s 753 mmHg 75%
    20:00 +25°C° 0 mm 4 m/s 754 mmHg 77%
    21:00 +25°C° 0 mm 4 m/s 754 mmHg 79%
    22:00 +25°C° 0 mm 4 m/s 755 mmHg 81%
    23:00 +25°C° 0 mm 3 m/s 755 mmHg 81%

    27 Septembre, Jeudi

    Heure Température Précipitation Vent Pression Humidité
    00:00 +25°C° 0 mm 3 m/s 754 mmHg 80%
    01:00 +25°C° 0 mm 3 m/s 754 mmHg 80%
    02:00 +25°C° 0 mm 3 m/s 754 mmHg 79%
    03:00 +25°C° 0 mm 3 m/s 754 mmHg 78%
    04:00 +25°C° 0 mm 3 m/s 753 mmHg 76%
    05:00 +25°C° 0 mm 2 m/s 754 mmHg 75%
    06:00 +25°C° 0 mm 2 m/s 754 mmHg 74%
    07:00 +25°C° 0 mm 2 m/s 755 mmHg 73%
    08:00 +27°C° 0 mm 1 m/s 755 mmHg 65%
    09:00 +29°C° 0 mm 1 m/s 755 mmHg 58%
    10:00 +31°C° 0 mm 1 m/s 755 mmHg 50%
    11:00 +32°C° 0 mm 2 m/s 754 mmHg 47%
    12:00 +34°C° 0 mm 3 m/s 753 mmHg 45%
    13:00 +34°C° 0 mm 4 m/s 752 mmHg 42%
    14:00 +33°C° 0 mm 5 m/s 752 mmHg 47%
    15:00 +32°C° 0 mm 5 m/s 751 mmHg 51%
    16:00 +29°C° 0 mm 5 m/s 751 mmHg 56%
    17:00 +28°C° 0 mm 5 m/s 751 mmHg 63%
    18:00 +27°C° 0 mm 5 m/s 752 mmHg 70%
    19:00 +25°C° 0 mm 5 m/s 753 mmHg 76%
    20:00 +25°C° 0 mm 4 m/s 753 mmHg 77%
    21:00 +25°C° 0 mm 4 m/s 754 mmHg 78%
    22:00 +25°C° 0 mm 4 m/s 754 mmHg 79%
    23:00 +25°C° 0 mm 3 m/s 754 mmHg 79%

    28 Septembre, Vendredi

    Heure Température Précipitation Vent Pression Humidité
    00:00 +25°C° 0 mm 3 m/s 754 mmHg 79%
    01:00 +25°C° 0 mm 3 m/s 754 mmHg 79%
    02:00 +25°C° 0.1 mm 2 m/s 754 mmHg 78%
    03:00 +24°C° 0.1 mm 2 m/s 754 mmHg 78%
    04:00 +24°C° 0.1 mm 1 m/s 754 mmHg 77%
    05:00 +25°C° 0 mm 1 m/s 754 mmHg 76%
    06:00 +25°C° 0 mm 1 m/s 754 mmHg 76%
    07:00 +25°C° 0 mm 1 m/s 755 mmHg 75%
    08:00 +26°C° 0 mm 2 m/s 755 mmHg 68%
    09:00 +28°C° 0 mm 2 m/s 755 mmHg 60%
    10:00 +30°C° 0 mm 3 m/s 754 mmHg 53%
    11:00 +30°C° 0 mm 3 m/s 753 mmHg 50%
    12:00 +32°C° 0 mm 4 m/s 753 mmHg 48%
    13:00 +33°C° 0 mm 4 m/s 752 mmHg 46%
    14:00 +32°C° 0 mm 5 m/s 751 mmHg 49%
    15:00 +30°C° 0 mm 5 m/s 751 mmHg 53%
    16:00 +29°C° 0 mm 6 m/s 750 mmHg 56%
    17:00 +28°C° 0 mm 5 m/s 751 mmHg 62%
    18:00 +27°C° 0 mm 4 m/s 752 mmHg 68%
    19:00 +25°C° 0 mm 4 m/s 753 mmHg 74%
    20:00 +25°C° 0 mm 4 m/s 753 mmHg 76%
    21:00 +25°C° 0 mm 4 m/s 753 mmHg 77%
    22:00 +25°C° 0 mm 4 m/s 754 mmHg 79%
    23:00 +24°C° 0 mm 3 m/s 754 mmHg 79%

    29 Septembre, Samedi

    Heure Température Précipitation Vent Pression Humidité
    00:00 +24°C° 0 mm 2 m/s 753 mmHg 79%
    01:00 +24°C° 0 mm 1 m/s 753 mmHg 80%
    02:00 +24°C° 0 mm 1 m/s 753 mmHg 79%
    03:00 +24°C° 0 mm 1 m/s 753 mmHg 78%
    04:00 +24°C° 0 mm 1 m/s 753 mmHg 77%
    05:00 +25°C° 0.2 mm 1 m/s 754 mmHg 76%
    06:00 +25°C° 0.2 mm 1 m/s 754 mmHg 75%
    07:00 +25°C° 0.2 mm 2 m/s 755 mmHg 74%
    08:00 +27°C° 0.2 mm 2 m/s 755 mmHg 67%
    09:00 +28°C° 0.2 mm 2 m/s 755 mmHg 60%
    10:00 +30°C° 0.2 mm 2 m/s 754 mmHg 53%
    11:00 +30°C° 0 mm 3 m/s 754 mmHg 51%
    12:00 +31°C° 0 mm 3 m/s 753 mmHg 49%
    13:00 +33°C° 0 mm 4 m/s 752 mmHg 47%
    14:00 +32°C° 0 mm 4 m/s 752 mmHg 50%
    15:00 +30°C° 0 mm 5 m/s 752 mmHg 52%
    16:00 +29°C° 0 mm 5 m/s 751 mmHg 55%
    17:00 +28°C° 0 mm 5 m/s 752 mmHg 61%
    18:00 +27°C° 0 mm 4 m/s 752 mmHg 66%
    19:00 +26°C° 0 mm 4 m/s 753 mmHg 72%
    20:00 +25°C° 0 mm 4 m/s 753 mmHg 74%
    21:00 +25°C° 0 mm 3 m/s 754 mmHg 76%
    22:00 +25°C° 0 mm 3 m/s 754 mmHg 78%
    23:00 +25°C° 0 mm 2 m/s 754 mmHg 79%
    Voir plus